Milan, NH

3:47 AM EST on February 21, 2017 (GMT -0500)
Berlin Municipal

Weather History for KBML - April, 2014

Change the Weather History Date:

Monday, April 14, 2014

  Actual Average Record
Temperature  
Mean Temperature 54 °F -  
Max Temperature 79 °F 49 °F 79 °F (2014)
Min Temperature 30 °F 23 °F 12 °F (2003)
Degree Days  
Heating Degree Days 10    
Growing Degree Days 4 (Base 50)    
Moisture  
Dew Point 36 °F    
Average Humidity 79    
Maximum Humidity 100    
Minimum Humidity 29    
Precipitation  
Precipitation 0.00 in - - ()
Sea Level Pressure  
Sea Level Pressure 29.89 in    
Wind  
Wind Speed 3 mph (SSW)    
Max Wind Speed 21 mph    
Max Gust Speed 29 mph    
Visibility 6 miles    
Events Fog    
Averages and records for this station are not official NWS values.
T = Trace of Precipitation, MM = Missing Value Source: NWS Daily Summary

Daily Weather History Graph

Daily Weather History Graph

Search for Another Location

Airport or City:

Trip Planner

Search our weather history database for the weather conditions in past years. The results will help you decide how hot, cold, wet, or windy it might be!

Date:

Astronomy

Apr. 14, 2014 Rise Set
Actual Time 6:02 AM EDT 7:28 PM EDT
Civil Twilight 5:32 AM EDT 7:58 PM EDT
Nautical Twilight 4:55 AM EDT 8:35 PM EDT
Astronomical Twilight 4:16 AM EDT 9:14 PM EDT
Moon 7:03 PM EDT (4/14) 5:34 AM EDT (4/14)
Length of Visible Light 14h 26m
Length of Day
13h 25m
Full, 100% of the Moon is Illuminated
Apr 14
Full
Apr 15
Full
Apr 22
Last Quarter
Apr 29
New
May 6
First Quarter

Hourly Weather History & Observations

Time (EDT) Temp. Windchill Dew Point Humidity Pressure Visibility Wind Dir Wind Speed Gust Speed Precip Events Conditions
12:52 AM 36.0 °F 32.1 °F 33.1 °F 89% 30.01 in 10.0 mi NNW 4.6 mph - N/A   Clear
1:52 AM 32.0 °F 27.5 °F 30.0 °F 92% 30.01 in 8.0 mi SE 4.6 mph - N/A   Partly Cloudy
2:04 AM 33.1 °F - 30.9 °F 92% 29.97 in 10.0 mi Calm Calm - N/A   Scattered Clouds
2:13 AM 33.1 °F 30.0 °F 30.9 °F 92% 29.97 in 8.0 mi West 3.5 mph - N/A   Mostly Cloudy
2:52 AM 32.0 °F - 30.0 °F 92% 30.01 in 9.0 mi Calm Calm - N/A   Mostly Cloudy
3:08 AM 30.0 °F - 28.9 °F 96% 29.96 in 6.0 mi Calm Calm - N/A   Scattered Clouds
3:24 AM 30.9 °F - 28.9 °F 92% 29.95 in 6.0 mi Calm Calm - N/A   Mostly Cloudy
3:34 AM 32.0 °F - 30.0 °F 92% 29.96 in 5.0 mi Calm Calm - N/A   Scattered Clouds
3:42 AM 30.0 °F - 28.9 °F 96% 29.96 in 5.0 mi Calm Calm - N/A   Mostly Cloudy
3:52 AM 30.9 °F - 28.9 °F 92% 29.99 in 5.0 mi Calm Calm - N/A   Mostly Cloudy
4:04 AM 30.0 °F - 28.9 °F 96% 29.94 in 1.8 mi Calm Calm - N/A   Overcast
4:08 AM 30.9 °F - 28.9 °F 92% 29.95 in 1.0 mi Calm Calm - N/A   Mist
4:16 AM 30.9 °F - 30.0 °F 96% 29.94 in 0.5 mi Calm Calm - N/A Fog Light Freezing Fog
4:28 AM 30.9 °F - 30.0 °F 96% 29.94 in 0.2 mi Calm Calm - N/A Fog Light Freezing Fog
5:52 AM 30.9 °F - 30.0 °F 96% 29.95 in 0.2 mi Calm Calm - N/A Fog Light Freezing Fog
6:26 AM 30.9 °F - 30.0 °F 96% 29.91 in 0.2 mi Calm Calm - N/A Fog Light Freezing Fog
6:38 AM 30.9 °F - 30.0 °F 96% 29.91 in 0.2 mi Calm Calm - N/A Fog Light Freezing Fog
6:50 AM 30.2 °F - 30.2 °F 100% 29.91 in 0.5 mi Calm Calm - N/A Fog Light Freezing Fog
6:52 AM 30.9 °F - 30.9 °F 100% 29.94 in 0.5 mi Calm Calm - N/A Fog Light Freezing Fog
7:03 AM 32.0 °F - 30.9 °F 96% 29.91 in 1.5 mi Calm Calm - N/A   Overcast
7:07 AM 32.0 °F - 30.9 °F 96% 29.91 in 3.0 mi Calm Calm - N/A   Mostly Cloudy
7:29 AM 32.0 °F - 30.9 °F 96% 29.91 in 8.0 mi Calm Calm - N/A   Scattered Clouds
8:52 AM 37.9 °F - 35.1 °F 89% 29.93 in 10.0 mi Calm Calm - N/A   Clear
9:52 AM 46.9 °F - 37.9 °F 71% 29.90 in 10.0 mi Calm Calm - N/A   Clear
10:52 AM 57.0 °F - 42.1 °F 57% 29.86 in 10.0 mi Calm Calm - N/A   Clear
11:52 AM 66.0 °F - 46.0 °F 48% 29.82 in 10.0 mi Calm Calm - N/A   Clear
12:52 PM 79.0 °F - 44.1 °F 29% 29.78 in 10.0 mi South 20.7 mph 27.6 mph N/A   Clear
2:52 PM 73.0 °F - 50.0 °F 44% 29.78 in 10.0 mi South 11.5 mph 21.9 mph N/A   Clear
3:52 PM 73.0 °F - 48.9 °F 42% 29.75 in 10.0 mi South 13.8 mph 28.8 mph N/A   Clear
5:52 PM 72.0 °F - 50.0 °F 46% 29.72 in 10.0 mi South 13.8 mph 21.9 mph N/A   Clear
6:52 PM 68.0 °F - 48.0 °F 49% 29.72 in 10.0 mi South 6.9 mph 17.3 mph N/A   Clear
7:52 PM 66.0 °F - 46.9 °F 50% 29.74 in 10.0 mi SW 9.2 mph - N/A   Clear
8:52 PM 64.9 °F - 48.9 °F 56% 29.75 in 10.0 mi SW 5.8 mph - N/A   Clear
9:52 PM 64.0 °F - 50.0 °F 60% 29.77 in 10.0 mi SSW 8.1 mph - N/A   Scattered Clouds
10:52 PM 64.0 °F - 48.9 °F 58% 29.77 in 10.0 mi SSW 10.4 mph - N/A   Clear
11:52 PM 63.0 °F - 48.9 °F 60% 29.76 in 10.0 mi SSE 5.8 mph - N/A   Clear